Home   Weather   Neusiedl am See   Past weeks

Flag for Austria Past Weather in Neusiedl am See, Burgenland, Austria — Yesterday and Last 2 Weeks

Now
79 °F

Warm.


Feels Like: 79 °F
Forecast: 53 / 76 °F
Wind: 5 mph from Northwest

Location: Eisenstadt

Current Time: Aug 30, 2016 at 3:10:48 PM

Latest Report: Aug 30, 2016 at 2:00 PM


Visibility: N/A

Pressure: 30.18 "Hg

Humidity: 45%

Dew Point: 55 °F

Location of Neusiedl am SeeLocation

Past Weather in Neusiedl am See — Graph

°F

Neusiedl am See Temperature Yesterday

Maximum temperature yesterday: 79 °F (at 12:00 PM)
Minimum temperature yesterday: 64 °F (at 4:00 AM)
Average temperature yesterday: 70 °F

High & Low Weather Summary for the Past Weeks

 TemperatureHumidityPressure
High87 °F (Aug 28, 4:00 PM)97% (Aug 20, 7:00 AM)30.33 "Hg (Aug 20, 7:00 AM)
Low56 °F (Aug 18, 3:00 AM)36% (Aug 26, 3:00 PM)29.80 "Hg (Aug 18, 4:00 PM)
Average69 °F69%30.06 "Hg
* Reported Aug 15 1:00 PM — Aug 30 1:00 PM, Neusiedl am See, Weather by CustomWeather, © 2016

Note: Actual official high and low records may vary slightly from our data, if they occured in-between our weather recording intervals... More about our weather records

Advertising

Neusiedl am See Weather History for the Previous 24 Hours

Scroll right to see more
 ConditionsComfort  
Time TempWeatherWind HumidityBarometerVisibility
1:00 PM
Tue, Aug 30
76 °FMild.5 mph49%30.19 "HgN/A
12:00 PM76 °FMild.5 mph55%30.19 "HgN/A
11:00 AM74 °FSunny.5 mph60%30.19 "Hg12 mi
10:00 AM72 °FMild.6 mph64%30.18 "HgN/A
9:00 AM70 °FMild.7 mph68%30.16 "HgN/A
8:00 AM67 °FMild.6 mph72%30.16 "HgN/A
7:00 AM67 °FPartly sunny.6 mph75%30.14 "Hg11 mi
6:00 AM65 °FPassing clouds.6 mph80%30.12 "Hg11 mi
5:00 AM65 °FMild.3 mph83%30.12 "HgN/A
4:00 AM68 °FPassing clouds.3 mph74%30.10 "Hg11 mi
3:00 AM69 °FMild.3 mph71%30.10 "HgN/A
2:00 AM70 °FOvercast.2 mph69%30.09 "Hg9 mi
1:00 AM70 °FMild.3 mph68%30.09 "HgN/A
12:00 AM70 °FMild.6 mph67%30.08 "HgN/A
11:00 PM
Mon, Aug 29
70 °FOvercast.5 mph69%30.06 "Hg9 mi
10:00 PM71 °FMild.6 mph68%30.05 "HgN/A
9:00 PM69 °FFog.7 mph74%30.04 "HgN/A
8:00 PM69 °FOvercast.8 mph75%30.03 "Hg9 mi
7:00 PM69 °FLight rain. Overcast.7 mph82%30.03 "Hg5 mi
5:00 PM77 °FOvercast.No wind62%30.00 "Hg9 mi
4:00 PM77 °FWarm.3 mph57%30.00 "HgN/A
3:00 PM77 °FWarm.3 mph57%30.02 "HgN/A
Weather by CustomWeather, © 2016

See weather overviewHow to use our weather pages